Wind_Speed
36 35 34 32 32 30 26 26 30 35 37 34 35 38 48 27 31 33 35 33 47 45 46 49 48 49 47 44 40 44 40 42
36 33 29 26 25 24 21 20 24 28 32 33 34 38 47 31 30 32 36 36 37 45 49 49 52 54 48 41 47 48 46 42
29 23 21 21 18 14 13 16 19 25 29 31 31 36 36 36 36 35 36 33 43 38 37 45 57 43 48 52 47 53 48 45
24 21 19 19 19 19 20 22 25 29 33 38 35 35 36 36 39 41 43 48 44 41 35 51 47 27 32 36 41 42 41 40
26 24 21 21 21 23 24 25 27 26 29 37 40 39 39 39 42 43 46 49 36 47 39 32 34 32 31 36 35 37 37 39
27 25 23 24 26 25 28 32 34 34 35 38 41 44 47 48 48 49 50 50 49 47 40 43 45 48 45 40 41 40 39 41
26 26 27 28 30 33 36 39 40 41 42 44 45 47 50 53 54 54 53 53 54 55 54 56 57 56 57 54 51 48 44 45
26 25 29 33 33 36 37 39 42 42 44 46 48 50 51 53 55 57 58 59 61 59 56 54 51 49 49 48 46 49 48 45
31 34 38 41 44 44 43 40 40 41 44 46 47 47 51 52 53 55 58 60 61 62 61 55 52 48 44 44 44 43 44 44
36 40 44 46 49 48 44 43 42 39 39 43 46 49 51 50 54 52 52 53 55 59 61 59 58 56 51 47 45 45 47 48
43 46 47 46 48 48 44 41 37 41 44 46 48 49 47 47 46 49 54 56 58 61 63 63 59 58 55 52 48 46 46 48
49 46 48 50 51 46 40 37 44 47 46 48 44 41 42 46 50 56 58 59 59 62 64 64 66 62 56 50 48 45 44 45
49 50 51 53 53 43 41 43 45 49 47 47 41 44 53 59 60 59 62 63 65 66 60 57 56 54 50 46 44 43 44 45
51 50 53 50 50 42 43 45 46 48 47 45 46 56 60 61 63 67 67 66 62 59 55 51 49 48 47 47 44 44 44 45
53 56 57 53 50 46 45 44 44 45 47 49 56 58 62 65 65 67 64 64 58 57 55 51 47 44 44 46 46 46 47 47
54 56 55 53 49 48 48 46 45 45 52 56 61 65 63 65 60 55 56 56 57 55 52 47 43 43 45 48 49 50 49 49
57 56 54 52 52 51 50 47 49 52 56 59 63 68 68 59 50 51 54 55 56 53 49 47 48 46 47 49 51 52 50 49
58 57 57 54 54 52 50 51 53 56 61 63 64 62 59 57 55 53 53 57 56 53 49 47 44 45 48 50 49 49 51 53
62 58 54 53 53 51 53 56 58 62 63 61 57 56 55 54 54 54 55 56 56 51 46 46 44 45 46 48 49 52 54 56
Wind_Direction
284 284 283 281 282 283 287 288 289 291 298 302 304 294 298 303 298 304 307 285 253 268 256 257 254 265 261 262 267 263 268 271
284 283 282 285 286 286 287 296 302 308 307 310 309 293 304 294 299 299 305 310 299 286 265 277 264 275 285 264 269 276 263 266
278 280 288 289 288 289 304 312 321 312 313 318 311 312 315 317 322 318 300 309 309 304 298 293 274 283 281 274 265 279 274 272
279 282 283 287 283 274 281 287 300 303 305 310 307 306 306 304 304 301 300 301 302 300 304 279 273 278 292 283 279 284 283 271
280 280 283 281 282 281 285 293 301 300 301 309 309 301 295 291 286 291 289 294 289 297 295 284 272 287 285 278 282 286 286 276
278 276 276 277 278 285 297 307 307 304 304 302 297 296 297 294 291 292 290 289 284 290 282 282 279 287 291 289 285 288 281 280
273 275 276 278 286 294 299 301 301 298 297 296 293 292 293 290 290 292 293 292 289 289 285 285 284 284 285 286 284 285 286 284
265 269 281 284 289 297 298 296 294 292 291 290 288 287 285 285 287 288 290 292 295 297 296 291 288 288 288 289 287 287 287 284
264 273 285 289 293 297 299 293 291 288 287 286 284 284 281 283 286 290 292 294 296 296 296 295 291 289 287 284 281 280 277 276
277 290 296 297 297 302 304 303 298 293 294 294 292 291 287 282 288 293 294 295 296 294 294 293 294 294 292 287 282 275 271 270
283 294 297 299 305 305 298 298 302 308 309 301 293 291 293 296 300 303 302 300 299 297 294 293 293 292 290 288 282 276 269 266
286 291 298 301 302 298 299 304 308 311 310 298 292 293 301 301 301 300 295 293 293 292 291 292 293 291 289 288 283 275 269 265
289 294 296 298 297 293 301 303 307 310 300 291 294 304 306 303 302 298 291 290 291 295 297 289 285 285 285 283 278 273 272 269
289 292 295 293 289 287 296 301 303 304 298 293 296 304 305 298 290 288 292 294 297 295 292 290 289 287 285 280 272 269 268 266
291 293 291 286 282 286 292 297 298 296 292 292 299 298 295 294 295 293 292 291 290 291 292 291 287 281 279 275 273 271 270 270
289 285 279 283 280 285 289 287 289 291 292 294 293 291 293 292 291 289 288 287 290 292 292 288 284 280 274 272 272 271 270 272
283 281 276 281 279 285 284 282 283 278 288 291 292 292 294 296 290 290 291 292 291 290 288 286 286 280 275 273 273 275 274 276
283 281 274 277 280 281 279 280 280 284 289 293 296 298 297 294 292 290 288 288 289 289 288 286 281 276 273 273 274 277 278 279
278 273 273 276 276 279 281 284 287 287 289 294 296 295 289 289 290 287 286 288 290 288 284 283 279 277 274 274 276 278 281 284
Height
5834 5833 5831 5829 5827 5824 5824 5821 5818 5815 5814 5814 5813 5810 5804 5802 5799 5798 5795 5789 5786 5786 5786 5785 5786 5786 5786 5788 5790 5788 5788 5789
5827 5825 5823 5822 5821 5820 5818 5817 5815 5813 5810 5809 5807 5801 5794 5794 5794 5794 5790 5786 5783 5783 5781 5782 5777 5778 5780 5782 5782 5780 5779 5779
5820 5819 5818 5817 5816 5815 5815 5813 5812 5808 5805 5803 5801 5796 5791 5789 5788 5788 5783 5780 5780 5778 5776 5770 5768 5774 5774 5773 5773 5772 5772 5770
5814 5813 5812 5811 5811 5810 5808 5807 5805 5803 5799 5797 5792 5790 5786 5785 5783 5782 5779 5776 5776 5775 5769 5765 5763 5766 5765 5766 5766 5765 5762 5761
5808 5806 5805 5805 5804 5802 5801 5799 5797 5795 5793 5790 5786 5782 5779 5777 5774 5772 5769 5768 5767 5766 5763 5761 5758 5758 5758 5759 5757 5754 5753 5753
5802 5801 5800 5799 5797 5796 5794 5791 5790 5787 5785 5783 5780 5777 5772 5768 5765 5764 5763 5760 5757 5756 5754 5754 5752 5748 5749 5748 5746 5745 5744 5742
5796 5795 5794 5793 5792 5790 5787 5784 5781 5778 5776 5774 5771 5768 5765 5761 5758 5754 5751 5749 5748 5746 5743 5740 5738 5737 5735 5734 5734 5732 5732 5731
5788 5787 5785 5783 5782 5780 5778 5775 5772 5770 5767 5764 5762 5758 5754 5751 5748 5744 5741 5737 5734 5732 5731 5727 5724 5721 5719 5718 5718 5716 5716 5716
5778 5776 5774 5773 5771 5769 5767 5765 5762 5758 5755 5753 5750 5746 5742 5739 5736 5732 5729 5725 5722 5718 5714 5712 5710 5709 5707 5705 5704 5703 5702 5701
5768 5767 5765 5762 5761 5758 5756 5753 5750 5746 5743 5741 5737 5734 5731 5728 5725 5721 5717 5713 5710 5706 5702 5699 5696 5693 5692 5690 5689 5688 5688 5687
5758 5756 5754 5751 5750 5747 5745 5741 5739 5737 5734 5729 5725 5722 5719 5716 5712 5708 5703 5698 5694 5690 5687 5684 5681 5679 5676 5675 5673 5672 5671 5670
5748 5745 5742 5741 5739 5736 5734 5730 5728 5725 5721 5717 5715 5712 5708 5705 5700 5695 5689 5685 5681 5677 5673 5668 5665 5662 5659 5657 5657 5656 5655 5655
5736 5733 5731 5729 5728 5725 5722 5719 5716 5712 5709 5707 5704 5702 5699 5694 5688 5681 5675 5669 5664 5660 5657 5653 5651 5648 5646 5644 5643 5641 5641 5640
5724 5722 5720 5717 5714 5712 5710 5707 5703 5700 5697 5695 5693 5689 5684 5679 5673 5667 5661 5656 5652 5647 5643 5640 5637 5635 5632 5631 5629 5628 5627 5626
5712 5710 5708 5704 5702 5699 5697 5695 5691 5688 5685 5682 5678 5673 5668 5663 5659 5653 5648 5643 5638 5634 5630 5626 5623 5621 5619 5618 5616 5615 5614 5613
5700 5697 5694 5691 5689 5687 5684 5681 5678 5675 5671 5667 5662 5656 5650 5644 5639 5636 5631 5627 5623 5619 5616 5612 5610 5608 5606 5604 5603 5601 5601 5600
5684 5681 5680 5677 5675 5673 5670 5666 5663 5660 5655 5650 5644 5639 5634 5629 5624 5621 5616 5613 5609 5606 5603 5600 5597 5595 5593 5591 5590 5588 5587 5585
5669 5667 5665 5663 5662 5659 5656 5652 5648 5643 5638 5634 5629 5624 5620 5616 5613 5608 5604 5600 5596 5592 5588 5585 5583 5581 5579 5578 5576 5574 5572 5569
5653 5651 5649 5648 5647 5644 5641 5638 5633 5628 5622 5618 5613 5609 5605 5602 5598 5594 5589 5585 5581 5578 5575 5572 5569 5567 5565 5564 5562 5559 5557 5554